SCP
-0 -0 -0 0 0 0 0 0 0 0 0 0 0 0 0 0 0 0 0 0 0 0 0 0 0 0 0 0 0 0 0 0
-0 -0 0 0 0 0 0 0 0 0 0 0 0 0 0 0 0 0 0 0 0 0 0 0 0 0 0 0 0 0 0 0
0 0 0 0 0 0 0 0 0 0 0 0 0 0 0 0 0 0 0 0 0 0 0 0 0 0 0 0 0 0 0 0
0 0 0 0 0 0 0 0 0 0 0 0 0 0 0 0 0 0 0 0 0 0 0 0 0 0 0 0 0 0 0 0
0 0 0 0 0 0 0 0 0 0 0 0 0 0 0 0 0 0 0 0 0 0 0 0 0 0 0 0 0 0 0 0
-0 -0 -0 0 0 0 0 0 0 0 0 0 0 0 0 0 0 0 0 0 0 0 0 0 0 0 0 0 0 0 0 0
-0 0 0 0 0 0 0 0 0 0 0 0 0 0 0 0 0 0 0 0 0 0 0 0 0 0 0 0 0 0 0 0
0 0 0 0 0 0 0 0 0 0 0 0 0 0 0 0 0 0 0 0 0 0 0 0 0 0 0 0 0 0 0 0
0 0 0 0 0 0 0 0 0 0 0 0 0 0 0 0 0 0 0 0 0 0 0 0 0 0 0 0 0 0 0 0
0 0 0 0 0 0 0 0 0 0 0 0 0 0 0 0 0 0 0 0 0 0 0 0 0 0 0 0 0 0 0 0
0 0 0 0 0 0 0 0 0 0 0 0 0 0 0 0 0 0 0 0 0 0 0 0 0 0 0 0 0 0 0 0
0 0 0 0 0 0 0 0 0 0 0 0 0 0 0 0 0 0 0 0 0 0 0 0 0 0 0 0 0 0 0 0
0 0 0 0 0 0 0 0 0 0 0 0 0 0 0 0 0 0 0 0 0 0 0 0 0 0 0 0 0 0 0 0
0 0 0 0 0 0 0 0 0 0 0 0 0 0 0 0 0 0 0 0 0 0 0 0 0 0 0 0 0 0 0 0
0 0 0 0 0 0 0 0 0 0 0 0 0 0 0 0 0 0 0 0 0 0 0 0 0 0 0 0 0 0 0 0
0 0 0 0 0 0 0 0 0 0 0 0 0 0 0 0 0 0 0 0 0 0 0 0 0 0 0 0 0 0 0 0
0 -0 0 0 0 0 0 0 0 0 0 0 0 0 0 0 0 0 0 0 0 0 0 0 0 0 0 0 0 0 0 0
-0 -0 -0 0 0 0 0 0 0 0 0 0 0 0 0 0 0 0 0 0 0 0 0 0 0 0 0 0 0 0 0 0
-0 -0 0 0 0 0 0 0 0 0 0 0 0 0 0 0 0 0 0 0 0 0 0 0 0 0 0 0 0 0 0 0
Wind_Speed_500mb
61 49 39 31 26 23 17 27 31 34 32 32 25 19 14 11 8 10 8 6 8 9 12 14 18 23 26 32 36 39 42 43
64 54 47 43 39 35 23 27 30 34 35 34 34 26 20 16 8 6 8 4 2 3 8 15 18 23 30 33 36 40 42 45
71 65 58 54 47 41 30 23 29 33 32 33 29 26 22 18 12 10 10 9 6 7 12 17 20 21 27 33 37 42 44 44
80 76 70 61 58 48 37 28 26 31 33 36 35 32 33 28 22 17 18 13 12 14 19 21 21 24 31 35 38 42 43 39
84 80 77 70 62 49 40 33 27 30 36 43 37 38 43 33 25 25 20 17 19 22 21 23 23 31 37 38 40 42 41 38
89 87 80 74 63 53 44 37 28 30 34 41 32 29 37 31 31 31 28 21 24 23 24 25 30 37 41 42 42 43 41 38
85 86 80 73 65 54 45 39 29 28 28 41 31 34 36 35 35 39 28 21 19 23 29 29 31 37 42 43 44 44 43 39
80 85 83 77 68 58 47 38 33 31 31 33 37 39 35 32 27 25 19 18 19 23 26 27 33 38 38 34 31 27 23 23
62 71 78 74 67 60 50 41 34 32 35 27 37 35 21 19 25 20 24 25 21 19 20 26 29 31 35 32 31 30 28 29
27 44 62 68 67 60 54 46 38 32 32 34 35 33 27 27 29 26 20 18 18 19 24 32 38 38 35 33 34 37 40 41
30 23 32 52 64 59 56 52 40 37 40 45 41 30 24 22 20 17 18 20 16 21 30 34 35 35 39 42 44 45 45 44
15 15 17 16 49 62 61 55 47 42 50 50 44 35 28 28 26 18 16 19 25 30 35 37 41 44 46 46 48 45 43 46
16 14 18 24 39 54 61 56 50 45 52 48 41 35 28 19 12 15 22 27 31 36 39 43 43 44 46 47 43 41 49 55
27 28 31 37 47 56 59 53 50 55 50 41 32 22 15 13 16 20 24 28 33 36 39 43 42 44 44 42 40 47 49 51
42 47 51 58 63 64 62 60 54 47 37 28 20 13 12 16 17 20 25 30 34 38 39 36 37 36 36 35 39 45 49 48
46 52 55 56 57 55 52 46 38 29 22 16 10 6 6 11 18 25 29 33 36 32 28 28 27 30 33 34 40 45 51 53
50 50 50 49 47 44 40 35 27 16 11 9 5 4 11 18 24 27 32 30 27 24 21 24 26 30 29 34 42 51 55 49
55 54 52 50 45 38 32 27 21 15 12 7 4 10 16 20 25 27 26 24 20 19 22 23 27 32 35 42 48 55 49 49
57 54 51 45 40 33 28 21 16 11 5 1 8 14 19 23 22 22 19 18 18 23 25 28 31 39 45 53 56 50 48 46
Wind_Direction_500mb
200 202 213 216 217 215 210 184 179 171 167 174 171 171 176 173 159 156 164 146 103 64 38 34 22 15 15 14 16 10 5 358
202 205 210 206 208 212 215 204 193 189 184 184 178 184 195 201 226 221 191 196 117 50 356 352 357 355 1 360 359 0 357 354
199 201 203 208 210 211 216 210 206 202 194 189 187 194 209 230 254 252 238 232 261 308 321 329 336 348 348 347 352 356 356 351
199 199 203 206 210 213 214 212 213 204 194 181 180 195 214 222 241 253 276 257 283 301 310 318 328 340 341 346 349 350 350 349
202 201 203 210 213 213 214 212 212 201 194 188 196 208 220 236 256 269 264 262 294 305 310 319 330 337 340 343 346 347 346 345
204 209 215 210 210 212 212 209 212 202 198 195 207 220 228 242 251 256 266 278 293 303 314 322 326 332 337 336 338 342 344 342
214 212 210 209 207 210 209 211 213 207 202 202 205 219 236 245 261 261 255 266 285 304 317 318 324 331 332 333 335 335 336 339
209 207 210 210 208 207 207 214 215 208 207 212 207 220 233 251 265 238 256 273 283 298 301 310 321 328 334 337 337 335 327 319
203 208 213 212 211 208 208 214 214 212 204 202 214 230 235 208 221 223 240 242 252 262 287 311 320 313 312 314 311 308 305 305
168 202 213 213 212 213 215 211 210 213 204 200 208 222 226 199 214 220 221 219 238 270 284 296 302 306 311 311 307 308 311 310
122 171 211 220 217 215 214 209 205 205 201 201 208 210 206 195 197 217 230 241 256 285 295 301 304 308 308 311 314 316 314 314
126 160 182 198 217 217 209 199 199 197 197 195 196 191 192 206 214 224 255 286 295 302 306 310 312 314 318 322 322 320 322 323
98 107 148 176 186 197 195 189 193 189 184 183 184 190 193 209 235 279 293 291 299 306 309 312 316 321 324 325 325 328 332 335
104 111 124 141 154 160 171 175 175 166 169 175 174 182 208 251 279 290 294 302 309 312 316 320 325 326 327 328 328 330 334 338
119 119 123 132 138 141 147 149 153 156 165 173 184 203 251 280 296 301 310 315 319 322 326 328 332 334 331 330 332 334 338 338
133 132 133 135 137 138 141 143 150 159 171 185 207 234 279 301 313 320 321 322 327 331 334 341 339 330 329 332 333 336 336 334
141 142 144 144 145 145 146 148 152 166 173 158 154 293 314 317 322 324 324 330 340 348 343 339 333 330 331 332 334 336 338 340
152 150 147 145 147 151 152 153 155 158 153 151 266 305 322 329 331 332 341 351 349 339 338 335 332 330 331 332 337 341 344 344
160 157 151 150 151 153 154 155 160 164 165 330 335 336 335 335 340 347 354 349 340 337 336 333 333 333 336 337 342 344 343 346
Wind_Speed_850mb
61 49 39 31 26 23 17 27 31 34 32 32 25 19 14 11 8 10 8 6 8 9 12 14 18 23 26 32 36 39 42 43
64 54 47 43 39 35 23 27 30 34 35 34 34 26 20 16 8 6 8 4 2 3 8 15 18 23 30 33 36 40 42 45
71 65 58 54 47 41 30 23 29 33 32 33 29 26 22 18 12 10 10 9 6 7 12 17 20 21 27 33 37 42 44 44
80 76 70 61 58 48 37 28 26 31 33 36 35 32 33 28 22 17 18 13 12 14 19 21 21 24 31 35 38 42 43 39
84 80 77 70 62 49 40 33 27 30 36 43 37 38 43 33 25 25 20 17 19 22 21 23 23 31 37 38 40 42 41 38
89 87 80 74 63 53 44 37 28 30 34 41 32 29 37 31 31 31 28 21 24 23 24 25 30 37 41 42 42 43 41 38
85 86 80 73 65 54 45 39 29 28 28 41 31 34 36 35 35 39 28 21 19 23 29 29 31 37 42 43 44 44 43 39
80 85 83 77 68 58 47 38 33 31 31 33 37 39 35 32 27 25 19 18 19 23 26 27 33 38 38 34 31 27 23 23
62 71 78 74 67 60 50 41 34 32 35 27 37 35 21 19 25 20 24 25 21 19 20 26 29 31 35 32 31 30 28 29
27 44 62 68 67 60 54 46 38 32 32 34 35 33 27 27 29 26 20 18 18 19 24 32 38 38 35 33 34 37 40 41
30 23 32 52 64 59 56 52 40 37 40 45 41 30 24 22 20 17 18 20 16 21 30 34 35 35 39 42 44 45 45 44
15 15 17 16 49 62 61 55 47 42 50 50 44 35 28 28 26 18 16 19 25 30 35 37 41 44 46 46 48 45 43 46
16 14 18 24 39 54 61 56 50 45 52 48 41 35 28 19 12 15 22 27 31 36 39 43 43 44 46 47 43 41 49 55
27 28 31 37 47 56 59 53 50 55 50 41 32 22 15 13 16 20 24 28 33 36 39 43 42 44 44 42 40 47 49 51
42 47 51 58 63 64 62 60 54 47 37 28 20 13 12 16 17 20 25 30 34 38 39 36 37 36 36 35 39 45 49 48
46 52 55 56 57 55 52 46 38 29 22 16 10 6 6 11 18 25 29 33 36 32 28 28 27 30 33 34 40 45 51 53
50 50 50 49 47 44 40 35 27 16 11 9 5 4 11 18 24 27 32 30 27 24 21 24 26 30 29 34 42 51 55 49
55 54 52 50 45 38 32 27 21 15 12 7 4 10 16 20 25 27 26 24 20 19 22 23 27 32 35 42 48 55 49 49
57 54 51 45 40 33 28 21 16 11 5 1 8 14 19 23 22 22 19 18 18 23 25 28 31 39 45 53 56 50 48 46
Wind_Direction_850mb
200 202 213 216 217 215 210 184 179 171 167 174 171 171 176 173 159 156 164 146 103 64 38 34 22 15 15 14 16 10 5 358
202 205 210 206 208 212 215 204 193 189 184 184 178 184 195 201 226 221 191 196 117 50 356 352 357 355 1 360 359 0 357 354
199 201 203 208 210 211 216 210 206 202 194 189 187 194 209 230 254 252 238 232 261 308 321 329 336 348 348 347 352 356 356 351
199 199 203 206 210 213 214 212 213 204 194 181 180 195 214 222 241 253 276 257 283 301 310 318 328 340 341 346 349 350 350 349
202 201 203 210 213 213 214 212 212 201 194 188 196 208 220 236 256 269 264 262 294 305 310 319 330 337 340 343 346 347 346 345
204 209 215 210 210 212 212 209 212 202 198 195 207 220 228 242 251 256 266 278 293 303 314 322 326 332 337 336 338 342 344 342
214 212 210 209 207 210 209 211 213 207 202 202 205 219 236 245 261 261 255 266 285 304 317 318 324 331 332 333 335 335 336 339
209 207 210 210 208 207 207 214 215 208 207 212 207 220 233 251 265 238 256 273 283 298 301 310 321 328 334 337 337 335 327 319
203 208 213 212 211 208 208 214 214 212 204 202 214 230 235 208 221 223 240 242 252 262 287 311 320 313 312 314 311 308 305 305
168 202 213 213 212 213 215 211 210 213 204 200 208 222 226 199 214 220 221 219 238 270 284 296 302 306 311 311 307 308 311 310
122 171 211 220 217 215 214 209 205 205 201 201 208 210 206 195 197 217 230 241 256 285 295 301 304 308 308 311 314 316 314 314
126 160 182 198 217 217 209 199 199 197 197 195 196 191 192 206 214 224 255 286 295 302 306 310 312 314 318 322 322 320 322 323
98 107 148 176 186 197 195 189 193 189 184 183 184 190 193 209 235 279 293 291 299 306 309 312 316 321 324 325 325 328 332 335
104 111 124 141 154 160 171 175 175 166 169 175 174 182 208 251 279 290 294 302 309 312 316 320 325 326 327 328 328 330 334 338
119 119 123 132 138 141 147 149 153 156 165 173 184 203 251 280 296 301 310 315 319 322 326 328 332 334 331 330 332 334 338 338
133 132 133 135 137 138 141 143 150 159 171 185 207 234 279 301 313 320 321 322 327 331 334 341 339 330 329 332 333 336 336 334
141 142 144 144 145 145 146 148 152 166 173 158 154 293 314 317 322 324 324 330 340 348 343 339 333 330 331 332 334 336 338 340
152 150 147 145 147 151 152 153 155 158 153 151 266 305 322 329 331 332 341 351 349 339 338 335 332 330 331 332 337 341 344 344
160 157 151 150 151 153 154 155 160 164 165 330 335 336 335 335 340 347 354 349 340 337 336 333 333 333 336 337 342 344 343 346